[[{"header":{"parameterUnit":"m.s-1","parameterCategory":2,"la1":30.2991,"la2":30.254,"lo1":-89.0895,"lo2":-89.0444,"dy":0.0017,"dx":0.0017,"nx":28,"ny":28,"refTime":"2024-04-27T21:00:00:Z","depth":"0","parameterNumber":2,"parameterNumberName":"U-component_of_CURRENTS"},"data":[0,0,0,0,0,0,0,0,0,0,0,0,0,0,0,0,0,0,0,0,0,0,0,0,0,0,0,0,0,0,0,0,0,0,0,0,0,0,0,0,0,0,0,0,0,0,0,0,0,0,0,0,0,0,0,0,0,0,-0.304,-0.304,0,-0.303,-0.303,-0.3029,-0.2954,-0.2953,-0.2952,-0.295,-0.2811,-0.2809,-0.2806,0,0,0,0,0,0,0,0,0,0,0,0,0,-0.2964,-0.2966,-0.304,-0.304,-0.304,-0.303,-0.303,-0.3029,-0.2955,-0.2953,-0.2951,-0.295,-0.2812,-0.2809,-0.2806,0,0,0,0,0,0,0,0,0,0,0,0,0,-0.2976,-0.2967,-0.304,-0.3005,-0.3002,-0.303,-0.3029,-0.3029,-0.2955,-0.2953,-0.2951,-0.2949,-0.2813,-0.2809,-0.2806,-0.2828,0,0,-0.2795,-0.2794,0,0,0,0,0,0,0,0,-0.2976,-0.2979,-0.301,-0.3007,-0.3004,-0.2995,-0.2952,-0.2957,-0.2956,-0.2969,-0.295,-0.2948,-0.2865,-0.2857,-0.2856,-0.2821,-0.2815,-0.2795,-0.2793,-0.2791,-0.279,0,0,0,0,0,0,0,-0.2975,-0.2979,-0.3032,-0.301,-0.3007,-0.298,-0.2979,-0.2953,-0.2923,-0.2967,-0.2963,-0.2969,-0.2861,-0.286,-0.2852,-0.2813,-0.2795,-0.2792,-0.279,-0.2788,-0.2753,-0.2754,0,0,0,0,0,0,-0.2989,-0.2979,-0.3032,-0.3032,-0.2989,-0.2984,-0.2982,-0.2997,-0.2926,-0.2916,-0.2971,-0.2966,-0.2867,-0.2856,-0.2846,-0.284,-0.2791,-0.2788,-0.2786,-0.2752,-0.2754,-0.2755,0,0,0,0,0,0,-0.2988,-0.2994,-0.3032,-0.3007,-0.301,-0.2988,-0.3004,-0.2998,-0.2986,-0.2932,-0.2917,-0.2965,-0.2865,-0.2851,-0.2817,-0.2834,-0.2786,-0.2783,-0.2751,-0.2753,-0.2754,-0.2844,0,0,0,0,0,0,-0.2986,-0.2994,-0.3004,-0.3009,-0.3013,-0.3041,-0.3007,-0.2999,-0.2996,-0.2988,-0.2922,-0.2907,-0.2862,-0.2823,-0.2814,-0.2829,-0.278,-0.2749,-0.2752,-0.2754,-0.284,-0.2849,-0.2856,0,0,0,0,0,-0.2983,-0.3002,-0.3005,-0.3011,-0.3029,-0.3042,-0.3041,-0.3014,-0.2998,-0.2995,-0.2953,-0.2909,-0.2831,-0.2821,-0.281,-0.2824,-0.2748,-0.2751,-0.2753,-0.2836,-0.2847,-0.2856,0,0,0,0,0,0,-0.2966,-0.2997,-0.2999,-0.3025,-0.3033,-0.3031,-0.303,-0.3022,-0.2992,-0.2978,-0.2922,-0.2905,-0.2881,-0.2847,-0.2838,-0.2822,-0.2784,-0.2784,-0.285,-0.286,-0.2868,-0.2839,-0.2777,0,0,0,0,0,-0.2975,-0.2997,-0.3018,-0.3036,-0.3045,-0.3043,-0.3044,-0.3032,-0.3013,-0.2998,-0.2957,-0.2917,-0.289,-0.2868,-0.2833,-0.2828,-0.2783,-0.2831,-0.284,-0.2847,-0.2817,-0.2786,-0.2788,-0.2764,-0.2764,-0.2763,0,0,-0.2973,-0.2994,-0.3004,-0.3034,-0.3038,-0.3056,-0.3036,-0.3043,-0.3046,-0.2988,-0.2969,-0.294,-0.2894,-0.2883,-0.287,-0.2852,-0.2837,-0.2851,-0.2857,-0.2822,-0.2789,-0.2791,-0.2793,-0.2765,-0.2765,-0.2765,0,0,-0.298,-0.3001,-0.3022,-0.3038,-0.3057,-0.3062,-0.3068,-0.3072,-0.3058,-0.3057,-0.3013,-0.2989,-0.2957,-0.2921,-0.2902,-0.2937,-0.2882,-0.2942,-0.2959,-0.2932,-0.2933,-0.2933,-0.2906,-0.2903,-0.2948,-0.2948,-0.2949,0,-0.2972,-0.3008,-0.3026,-0.3052,-0.3066,-0.3069,-0.3089,-0.3087,-0.3075,-0.3068,-0.3055,-0.3008,-0.297,-0.2948,-0.2958,-0.2953,-0.2929,-0.2928,-0.2941,-0.294,-0.2939,-0.291,-0.2906,-0.2953,-0.2953,-0.2952,-0.2952,0,-0.2993,-0.3025,-0.3039,-0.3076,-0.3093,-0.3111,-0.3124,-0.3127,-0.3124,-0.3119,-0.3099,-0.3057,-0.3021,-0.3026,-0.2998,-0.2981,-0.2966,-0.2956,-0.2914,-0.2947,-0.2915,-0.2909,-0.296,-0.2958,-0.2957,-0.2955,0,0,-0.2965,-0.304,-0.3044,-0.3066,-0.3108,-0.312,-0.3142,-0.3156,-0.3158,-0.3149,-0.314,-0.3108,-0.3081,-0.3055,-0.3027,-0.3002,-0.2988,-0.2978,-0.2974,-0.2947,-0.2928,-0.2912,-0.2903,-0.2989,-0.2988,-0.2987,-0.292,0,-0.297,-0.3025,-0.3061,-0.3101,-0.3128,-0.3152,-0.3171,-0.3182,-0.3185,-0.3177,-0.3143,-0.3121,-0.3097,-0.3081,-0.3054,-0.2998,-0.297,-0.3006,-0.2901,-0.2897,-0.2875,-0.2894,-0.2851,-0.2786,-0.2913,-0.2912,-0.2911,0,-0.2965,-0.3012,-0.3057,-0.3118,-0.313,-0.315,-0.3177,-0.3196,-0.3198,-0.3198,-0.3178,-0.315,-0.3104,-0.3082,-0.2996,-0.3025,-0.297,-0.2931,-0.2928,-0.2863,-0.2867,-0.2768,-0.2768,-0.2783,-0.29,-0.2901,-0.2902,0,-0.2919,-0.2997,-0.3031,-0.3054,-0.3126,-0.314,-0.3168,-0.3192,-0.3199,-0.3199,-0.3198,-0.3155,-0.312,-0.3056,-0.298,-0.2987,-0.2885,-0.2888,-0.2819,-0.2818,-0.2728,-0.2721,-0.2717,-0.2811,-0.2811,-0.2811,-0.2811,0,-0.2906,-0.2929,-0.301,-0.3031,-0.3052,-0.3117,-0.3131,-0.3155,-0.3183,-0.3184,-0.3191,-0.3168,-0.311,-0.3054,-0.2984,-0.2883,-0.2889,-0.2803,-0.2793,-0.2763,-0.276,-0.2724,-0.2719,-0.2809,-0.2809,-0.281,-0.281,0,-0.2838,-0.2903,-0.2931,-0.301,-0.3029,-0.3035,-0.3097,-0.3107,-0.3157,-0.3157,-0.3155,-0.3161,-0.3094,-0.3035,-0.293,-0.2882,-0.2753,-0.2751,-0.2724,-0.2711,-0.2665,-0.2665,-0.256,-0.2483,-0.2661,-0.2661,-0.266,0,-0.2807,-0.2818,-0.288,-0.2888,-0.2919,-0.2954,-0.2974,-0.3057,-0.3079,-0.3141,-0.3126,-0.3099,-0.3052,-0.2924,-0.2841,-0.2729,-0.2689,-0.2625,-0.2619,-0.2643,-0.2636,-0.2627,-0.2569,-0.2546,-0.2544,-0.2543,-0.2542,0,-0.2722,-0.2732,-0.2755,-0.2779,-0.2799,-0.2839,-0.2887,-0.2909,-0.3008,-0.3015,-0.3025,-0.3005,-0.2941,-0.2836,-0.2734,-0.2642,-0.2591,-0.2593,-0.2616,-0.2532,-0.2518,-0.2447,-0.2621,-0.253,-0.2531,-0.2532,-0.2532,-0.2533,-0.2616,-0.2603,-0.2623,-0.2631,-0.2667,-0.2707,-0.2667,-0.2751,-0.2768,-0.2754,-0.287,-0.28,-0.2831,-0.2687,-0.262,-0.253,-0.2488,-0.246,-0.2455,-0.2442,-0.2375,-0.2528,-0.2434,-0.2434,-0.2435,-0.2435,-0.2436,0,-0.2482,-0.248,-0.2478,-0.2481,-0.2458,-0.2536,-0.2575,-0.2499,-0.2454,-0.2534,-0.2521,-0.2587,-0.2561,-0.2568,-0.2545,-0.2448,-0.2369,-0.2367,-0.2349,-0.2288,-0.2424,-0.243,-0.2334,-0.2334,-0.2334,-0.2334,-0.2334,-0.2334,-0.2401,-0.2349,-0.2356,-0.2263,-0.2261,-0.2159,-0.2139,-0.2058,-0.2054,-0.2001,-0.2046,-0.212,-0.2271,-0.2584,-0.2543,-0.243,-0.234,-0.2272,-0.2238,-0.238,-0.239,-0.2399,-0.2407,-0.2308,-0.2308,-0.2069,-0.2068,-0.2066]},{"header":{"parameterUnit":"m.s-1","parameterCategory":2,"la1":30.2991,"la2":30.254,"lo1":-89.0895,"lo2":-89.0444,"dy":0.0017,"dx":0.0017,"nx":28,"ny":28,"refTime":"2024-04-27T21:00:00:Z","depth":"0","parameterNumber":3,"parameterNumberName":"V-component_of_CURRENTS"},"data":[0,0,0,0,0,0,0,0,0,0,0,0,0,0,0,0,0,0,0,0,0,0,0,0,0,0,0,0,0,0,0,0,0,0,0,0,0,0,0,0,0,0,0,0,0,0,0,0,0,0,0,0,0,0,0,0,0,0,-0.0245,-0.0244,0,-0.0132,-0.0131,-0.013,-0.007,-0.007,-0.007,-0.007,0.0049,0.0052,0.0055,0,0,0,0,0,0,0,0,0,0,0,0,0,-0.0341,-0.034,-0.0245,-0.0244,-0.0242,-0.0132,-0.0131,-0.0129,-0.007,-0.007,-0.007,-0.007,0.0048,0.0051,0.0055,0,0,0,0,0,0,0,0,0,0,0,0,0,-0.0271,-0.034,-0.0245,-0.02,-0.0194,-0.0133,-0.0131,-0.0129,-0.007,-0.007,-0.007,-0.0069,0.0046,0.0051,0.0055,0.0081,0,0,0.007,0.0072,0,0,0,0,0,0,0,0,-0.0275,-0.0268,-0.0208,-0.0203,-0.0197,-0.0115,-0.0121,-0.0058,-0.007,-0.0117,-0.007,-0.0069,-0.0006,0.0003,0.0024,0.0087,0.0092,0.007,0.0073,0.0075,0.0076,0,0,0,0,0,0,0,-0.028,-0.0272,-0.02,-0.0206,-0.0199,-0.0161,-0.0152,-0.0109,-0.0063,-0.0113,-0.0108,-0.0096,-0.0003,0.002,0.0027,0.0094,0.007,0.0074,0.0077,0.0079,0.0222,0.0223,0,0,0,0,0,0,-0.0298,-0.0277,-0.0204,-0.0197,-0.0237,-0.016,-0.0149,-0.0141,-0.0063,-0.0052,-0.0096,-0.0094,0.0012,0.0022,0.0032,0.0088,0.0075,0.0079,0.0082,0.0221,0.0222,0.0223,0,0,0,0,0,0,-0.0301,-0.0293,-0.0208,-0.0234,-0.0221,-0.0159,-0.015,-0.0139,-0.0117,-0.0051,-0.0039,-0.0086,0.0012,0.0025,0.0083,0.0092,0.0081,0.0085,0.0219,0.0221,0.0223,0.0187,0,0,0,0,0,0,-0.0304,-0.0295,-0.0299,-0.0236,-0.022,-0.0177,-0.015,-0.0137,-0.011,-0.0105,-0.0038,-0.0027,0.0013,0.0076,0.0087,0.0098,0.0089,0.0218,0.022,0.0222,0.0186,0.0187,0.0187,0,0,0,0,0,-0.0308,-0.0315,-0.03,-0.0291,-0.0227,-0.0177,-0.0165,-0.0121,-0.011,-0.0101,-0.0045,-0.0029,0.0096,0.0081,0.0094,0.0106,0.0217,0.022,0.0222,0.0186,0.0187,0.0187,0,0,0,0,0,0,-0.0363,-0.0308,-0.029,-0.0282,-0.0235,-0.0167,-0.0158,-0.0126,-0.0075,-0.0074,-0.0013,0.0003,0.0051,0.0089,0.007,0.0155,0.0158,0.0163,0.0127,0.0128,0.0128,0.0109,0.0093,0,0,0,0,0,-0.0377,-0.0368,-0.0306,-0.0301,-0.0282,-0.0222,-0.0198,-0.0166,-0.0112,-0.009,-0.0038,0.0019,0.0072,0.0106,0.0151,0.0203,0.024,0.022,0.022,0.022,0.0215,0.0285,0.029,0.0231,0.0231,0.0231,0,0,-0.0399,-0.0367,-0.0363,-0.0312,-0.0276,-0.0249,-0.0208,-0.0177,-0.0148,-0.0085,-0.0037,0.0013,0.0083,0.0139,0.0165,0.0173,0.0259,0.0223,0.0222,0.0218,0.0288,0.0293,0.0298,0.0232,0.0232,0.0232,0,0,-0.0437,-0.0409,-0.0412,-0.0374,-0.0322,-0.0277,-0.0272,-0.0203,-0.0168,-0.0113,-0.006,0.0004,0.0078,0.0144,0.0183,0.0215,0.0248,0.0222,0.022,0.0287,0.0292,0.0297,0.0355,0.0366,0.0234,0.0233,0.0233,0,-0.0469,-0.0459,-0.0406,-0.0392,-0.0366,-0.0295,-0.0285,-0.0235,-0.0154,-0.0118,-0.0107,0.0029,0.0084,0.0173,0.0186,0.0214,0.0249,0.0209,0.0286,0.0291,0.0297,0.0356,0.0368,0.0232,0.0232,0.0232,0.0232,0,-0.0501,-0.049,-0.0488,-0.0445,-0.0407,-0.0389,-0.031,-0.0268,-0.022,-0.016,-0.0076,0.0013,0.0098,0.0128,0.0168,0.0242,0.0253,0.0266,0.0278,0.03,0.0362,0.0374,0.023,0.023,0.0231,0.0231,0,0,-0.0584,-0.0525,-0.0526,-0.0513,-0.0435,-0.0409,-0.0354,-0.0279,-0.0238,-0.0155,-0.0092,0.0015,0.0067,0.0115,0.0182,0.0249,0.0325,0.0269,0.0273,0.0314,0.0465,0.0534,0.0555,0.0344,0.0346,0.0348,0.0493,0,-0.0629,-0.0633,-0.0573,-0.0561,-0.0556,-0.0461,-0.0413,-0.0332,-0.025,-0.0169,-0.0059,0.0017,0.0063,0.0105,0.0181,0.0289,0.0356,0.0284,0.0448,0.0453,0.0502,0.0572,0.0664,0.0806,0.0505,0.0508,0.0509,0,-0.0683,-0.0676,-0.0685,-0.0621,-0.0607,-0.0578,-0.0484,-0.0429,-0.0289,-0.0224,-0.0117,-0.0028,0.0102,0.0121,0.0318,0.0266,0.0356,0.0435,0.0443,0.0526,0.0547,0.0737,0.0841,0.1035,0.053,0.0528,0.0526,0,-0.0786,-0.075,-0.0763,-0.0743,-0.066,-0.0634,-0.0582,-0.0455,-0.0398,-0.0259,-0.0201,-0.004,0.0051,0.0181,0.0363,0.0337,0.057,0.056,0.0707,0.0712,0.0835,0.0848,0.1137,0.0683,0.0682,0.0682,0.0682,0,-0.0863,-0.087,-0.0816,-0.0822,-0.0821,-0.0725,-0.0686,-0.0605,-0.0475,-0.0393,-0.0246,-0.0137,0.0067,0.0237,0.0367,0.0599,0.0584,0.0725,0.0766,0.0826,0.0837,0.1044,0.1086,0.0687,0.0686,0.0685,0.0684,0,-0.097,-0.0939,-0.0951,-0.089,-0.0874,-0.0876,-0.0774,-0.0732,-0.0602,-0.0489,-0.0447,-0.0198,0.0045,0.0255,0.0506,0.0625,0.0946,0.0892,0.0949,0.0995,0.1295,0.1328,0.1599,0.1704,0.1078,0.1081,0.1083,0,-0.1024,-0.1046,-0.1026,-0.1041,-0.1016,-0.0993,-0.0966,-0.0829,-0.0759,-0.0509,-0.0454,-0.0183,0.0056,0.0461,0.0735,0.101,0.1097,0.1207,0.1179,0.1356,0.1423,0.1425,0.1492,0.1331,0.1335,0.1338,0.1341,0,-0.1117,-0.1112,-0.1124,-0.1165,-0.1162,-0.1137,-0.1074,-0.1027,-0.083,-0.0685,-0.0414,-0.0194,0.0258,0.068,0.1032,0.1176,0.1365,0.1284,0.1473,0.166,0.1677,0.1782,0.1175,0.1371,0.1368,0.1366,0.1365,0.1363,-0.1181,-0.1226,-0.1246,-0.1279,-0.1283,-0.1249,-0.1196,-0.1064,-0.0912,-0.0583,-0.0406,0.0019,0.0615,0.1175,0.1346,0.1758,0.1639,0.1851,0.188,0.1869,0.1974,0.1426,0.1658,0.1657,0.1655,0.1654,0.1653,0,-0.1255,-0.1295,-0.1346,-0.1371,-0.1385,-0.1345,-0.1234,-0.1093,-0.0865,-0.0515,-0.0198,0.0526,0.1106,0.1598,0.2169,0.2355,0.237,0.2426,0.2474,0.2515,0.2068,0.2087,0.2417,0.2416,0.2416,0.2416,0.2416,0.2416,-0.1294,-0.1371,-0.1399,-0.1447,-0.1446,-0.1364,-0.1275,-0.0995,-0.0699,-0.0092,0.0382,0.0717,0.1384,0.2353,0.288,0.2894,0.3046,0.3009,0.3068,0.2788,0.2736,0.2687,0.2721,0.3179,0.3179,0.3535,0.3539,0.3542]}],[{"header":{"parameterUnit":"m.s-1","parameterCategory":2,"la1":30.2991,"la2":30.254,"lo1":-89.0895,"lo2":-89.0444,"dy":0.0017,"dx":0.0017,"nx":28,"ny":28,"refTime":"2024-04-27T21:00:00:Z","depth":"2","parameterNumber":2,"parameterNumberName":"U-component_of_CURRENTS"},"data":[0,0,0,0,0,0,0,0,0,0,0,0,0,0,0,0,0,0,0,0,0,0,0,0,0,0,0,0,0,0,0,0,0,0,0,0,0,0,0,0,0,0,0,0,0,0,0,0,0,0,0,0,0,0,0,0,0,0,-0.2961,-0.2961,0,-0.2952,-0.2952,-0.2952,-0.2881,-0.2879,-0.2878,-0.2877,-0.2743,-0.274,-0.2738,0,0,0,0,0,0,0,0,0,0,0,0,0,-0.2886,-0.2888,-0.2961,-0.2961,-0.2961,-0.2953,-0.2952,-0.2952,-0.2881,-0.2879,-0.2878,-0.2876,-0.2743,-0.2741,-0.2738,0,0,0,0,0,0,0,0,0,0,0,0,0,-0.2899,-0.2888,-0.2961,-0.2928,-0.2925,-0.2953,-0.2952,-0.2951,-0.2881,-0.2879,-0.2877,-0.2875,-0.2744,-0.2741,-0.2737,-0.2758,0,0,-0.2727,-0.2725,0,0,0,0,0,0,0,0,-0.2898,-0.2901,-0.2933,-0.293,-0.2927,-0.2919,-0.2877,-0.2882,-0.2882,-0.2894,-0.2877,-0.2874,-0.2794,-0.2787,-0.2785,-0.2751,-0.2745,-0.2727,-0.2725,-0.2723,-0.2722,0,0,0,0,0,0,0,-0.2897,-0.2901,-0.2953,-0.2933,-0.293,-0.2904,-0.2904,-0.2878,-0.285,-0.2893,-0.2888,-0.2895,-0.2791,-0.2789,-0.2781,-0.2743,-0.2727,-0.2724,-0.2722,-0.272,-0.2686,-0.2687,0,0,0,0,0,0,-0.2911,-0.2901,-0.2953,-0.2953,-0.2912,-0.2908,-0.2907,-0.2921,-0.2853,-0.2843,-0.2897,-0.2892,-0.2796,-0.2786,-0.2776,-0.2771,-0.2723,-0.272,-0.2718,-0.2685,-0.2687,-0.2688,0,0,0,0,0,0,-0.291,-0.2916,-0.2954,-0.2929,-0.2932,-0.2912,-0.2928,-0.2922,-0.2911,-0.2858,-0.2844,-0.2892,-0.2794,-0.2781,-0.2749,-0.2766,-0.2718,-0.2715,-0.2684,-0.2686,-0.2687,-0.2776,0,0,0,0,0,0,-0.2908,-0.2916,-0.2926,-0.2931,-0.2935,-0.2963,-0.293,-0.2923,-0.2921,-0.2914,-0.285,-0.2836,-0.2791,-0.2754,-0.2745,-0.276,-0.2713,-0.2682,-0.2685,-0.2687,-0.2772,-0.2781,-0.2789,0,0,0,0,0,-0.2905,-0.2923,-0.2926,-0.2932,-0.2951,-0.2964,-0.2963,-0.2938,-0.2923,-0.292,-0.2881,-0.2838,-0.2762,-0.2753,-0.2742,-0.2756,-0.2681,-0.2684,-0.2686,-0.2768,-0.2779,-0.2788,0,0,0,0,0,0,-0.2888,-0.2919,-0.2921,-0.2946,-0.2955,-0.2953,-0.2953,-0.2946,-0.2918,-0.2905,-0.285,-0.2834,-0.2812,-0.2778,-0.2769,-0.2754,-0.2716,-0.2716,-0.2782,-0.2791,-0.28,-0.2771,-0.271,0,0,0,0,0,-0.2897,-0.2919,-0.294,-0.2957,-0.2966,-0.2965,-0.2967,-0.2956,-0.2938,-0.2924,-0.2885,-0.2846,-0.282,-0.2799,-0.2765,-0.276,-0.2716,-0.2763,-0.2772,-0.2779,-0.275,-0.2719,-0.2722,-0.2696,-0.2696,-0.2696,0,0,-0.2894,-0.2915,-0.2926,-0.2956,-0.296,-0.2978,-0.2959,-0.2967,-0.2971,-0.2914,-0.2898,-0.287,-0.2824,-0.2813,-0.2801,-0.2783,-0.277,-0.2782,-0.2789,-0.2755,-0.2722,-0.2724,-0.2726,-0.2698,-0.2698,-0.2698,0,0,-0.2901,-0.2923,-0.2943,-0.296,-0.298,-0.2984,-0.2991,-0.2996,-0.2983,-0.2983,-0.2941,-0.2918,-0.2887,-0.2851,-0.2833,-0.2868,-0.2814,-0.2872,-0.289,-0.2863,-0.2864,-0.2865,-0.2838,-0.2835,-0.2879,-0.2879,-0.2879,0,-0.2894,-0.2929,-0.2947,-0.2973,-0.2987,-0.2991,-0.3011,-0.301,-0.3,-0.2993,-0.2982,-0.2938,-0.29,-0.2879,-0.2889,-0.2883,-0.286,-0.2859,-0.2873,-0.2872,-0.2871,-0.2843,-0.2838,-0.2884,-0.2883,-0.2883,-0.2882,0,-0.2914,-0.2946,-0.296,-0.2997,-0.3014,-0.3032,-0.3046,-0.305,-0.3048,-0.3044,-0.3026,-0.2986,-0.2951,-0.2956,-0.2929,-0.2912,-0.2898,-0.2888,-0.2846,-0.2879,-0.2848,-0.2842,-0.289,-0.2889,-0.2887,-0.2886,0,0,-0.2886,-0.296,-0.2964,-0.2987,-0.3029,-0.3041,-0.3064,-0.3078,-0.3081,-0.3074,-0.3066,-0.3036,-0.3011,-0.2986,-0.2958,-0.2934,-0.2921,-0.291,-0.2907,-0.288,-0.2862,-0.2845,-0.2836,-0.2921,-0.292,-0.2919,-0.2854,0,-0.2892,-0.2945,-0.2981,-0.3021,-0.3048,-0.3072,-0.3091,-0.3103,-0.3108,-0.3102,-0.3069,-0.3049,-0.3026,-0.3012,-0.2986,-0.2931,-0.2904,-0.2938,-0.2835,-0.2831,-0.2808,-0.2827,-0.2591,-0.2511,-0.2847,-0.2846,-0.2845,0,-0.2887,-0.2932,-0.2977,-0.3038,-0.305,-0.3071,-0.3099,-0.3118,-0.3121,-0.3123,-0.3105,-0.3079,-0.3034,-0.3014,-0.293,-0.2958,-0.2905,-0.2866,-0.2863,-0.2797,-0.28,-0.2527,-0.2487,-0.2834,-0.2835,-0.2836,-0.2837,0,-0.2841,-0.2918,-0.2952,-0.2975,-0.3047,-0.3061,-0.309,-0.3115,-0.3123,-0.3125,-0.3126,-0.3084,-0.3052,-0.2989,-0.2915,-0.2922,-0.2822,-0.2824,-0.2755,-0.2754,-0.2501,-0.2479,-0.2748,-0.2749,-0.2749,-0.2749,-0.2749,0,-0.2828,-0.2852,-0.2932,-0.2953,-0.2975,-0.3039,-0.3055,-0.308,-0.3109,-0.3111,-0.312,-0.3098,-0.3042,-0.2988,-0.2918,-0.2818,-0.2825,-0.274,-0.2729,-0.2531,-0.2515,-0.2745,-0.2746,-0.2746,-0.2747,-0.2747,-0.2748,0,-0.2761,-0.2826,-0.2854,-0.2933,-0.2952,-0.296,-0.3023,-0.3034,-0.3085,-0.3086,-0.3085,-0.3092,-0.3027,-0.2969,-0.2866,-0.2818,-0.2729,-0.2688,-0.2468,-0.2433,-0.2677,-0.2683,-0.2601,-0.26,-0.2599,-0.2598,-0.2597,0,-0.2731,-0.2743,-0.2805,-0.2814,-0.2845,-0.2882,-0.2902,-0.2986,-0.3008,-0.307,-0.3056,-0.3031,-0.2975,-0.2849,-0.2717,-0.2592,-0.2674,-0.2361,-0.2329,-0.2661,-0.2659,-0.2667,-0.2674,-0.203,-0.2024,-0.202,-0.2016,0,-0.2647,-0.2659,-0.2682,-0.2707,-0.2729,-0.2768,-0.2817,-0.2838,-0.2938,-0.2936,-0.2946,-0.2917,-0.2809,-0.2577,-0.2456,-0.2353,-0.237,-0.2274,-0.2631,-0.2137,-0.2125,-0.2124,-0.2148,-0.1977,-0.1981,-0.1984,-0.1986,-0.1988,-0.2544,-0.2532,-0.2553,-0.2563,-0.2599,-0.2638,-0.2599,-0.2637,-0.2638,-0.255,-0.2713,-0.2535,-0.2516,-0.2163,-0.2074,-0.1979,-0.213,-0.2035,-0.2046,-0.2062,-0.204,-0.2031,-0.186,-0.1863,-0.1866,-0.1868,-0.1871,0,-0.2386,-0.2412,-0.2411,-0.2415,-0.2365,-0.2471,-0.2509,-0.2369,-0.2253,-0.2227,-0.2145,-0.1898,-0.1787,-0.1772,-0.1568,-0.1587,-0.153,-0.1539,-0.1453,-0.1492,-0.1526,-0.1477,-0.1147,-0.1145,-0.1144,-0.1142,0,0,-0.23,-0.224,-0.2247,-0.2144,-0.2165,-0.201,-0.1988,-0.181,-0.1699,-0.1471,-0.1363,-0.1468,-0.1623,-0.1321,-0.1314,-0.1197,-0.1308,-0.1127,-0.1693,-0.1619,-0.1651,-0.1793,-0.1758,0,0,0,0,0]},{"header":{"parameterUnit":"m.s-1","parameterCategory":2,"la1":30.2991,"la2":30.254,"lo1":-89.0895,"lo2":-89.0444,"dy":0.0017,"dx":0.0017,"nx":28,"ny":28,"refTime":"2024-04-27T21:00:00:Z","depth":"2","parameterNumber":3,"parameterNumberName":"V-component_of_CURRENTS"},"data":[0,0,0,0,0,0,0,0,0,0,0,0,0,0,0,0,0,0,0,0,0,0,0,0,0,0,0,0,0,0,0,0,0,0,0,0,0,0,0,0,0,0,0,0,0,0,0,0,0,0,0,0,0,0,0,0,0,0,-0.0279,-0.0278,0,-0.0168,-0.0167,-0.0166,-0.0105,-0.0105,-0.0105,-0.0105,0.0012,0.0015,0.0018,0,0,0,0,0,0,0,0,0,0,0,0,0,-0.0373,-0.0372,-0.028,-0.0278,-0.0277,-0.0169,-0.0167,-0.0165,-0.0105,-0.0105,-0.0105,-0.0105,0.0011,0.0015,0.0018,0,0,0,0,0,0,0,0,0,0,0,0,0,-0.0304,-0.0371,-0.028,-0.0234,-0.0229,-0.0169,-0.0167,-0.0165,-0.0106,-0.0105,-0.0105,-0.0105,0.001,0.0014,0.0019,0.0043,0,0,0.0033,0.0035,0,0,0,0,0,0,0,0,-0.0308,-0.0301,-0.0242,-0.0237,-0.0231,-0.0151,-0.0157,-0.0095,-0.0106,-0.0152,-0.0105,-0.0105,-0.0042,-0.0033,-0.0012,0.0049,0.0054,0.0033,0.0036,0.0038,0.0039,0,0,0,0,0,0,0,-0.0313,-0.0305,-0.0235,-0.0241,-0.0234,-0.0196,-0.0187,-0.0144,-0.0099,-0.0148,-0.0143,-0.0132,-0.0039,-0.0017,-0.0009,0.0056,0.0033,0.0037,0.004,0.0042,0.0182,0.0183,0,0,0,0,0,0,-0.0331,-0.031,-0.0239,-0.0232,-0.027,-0.0195,-0.0184,-0.0177,-0.0099,-0.0088,-0.0132,-0.0129,-0.0025,-0.0015,-0.0005,0.0051,0.0038,0.0042,0.0045,0.0181,0.0182,0.0183,0,0,0,0,0,0,-0.0333,-0.0326,-0.0243,-0.0268,-0.0255,-0.0194,-0.0185,-0.0174,-0.0152,-0.0087,-0.0075,-0.0121,-0.0024,-0.0011,0.0046,0.0055,0.0044,0.0048,0.018,0.0182,0.0183,0.0147,0,0,0,0,0,0,-0.0337,-0.0327,-0.0332,-0.027,-0.0254,-0.0213,-0.0185,-0.0172,-0.0145,-0.0141,-0.0074,-0.0063,-0.0023,0.0039,0.005,0.0061,0.0052,0.0179,0.0181,0.0182,0.0147,0.0147,0.0147,0,0,0,0,0,-0.034,-0.0348,-0.0333,-0.0324,-0.0261,-0.0213,-0.0201,-0.0157,-0.0145,-0.0136,-0.0081,-0.0065,0.0059,0.0043,0.0057,0.0068,0.0178,0.018,0.0182,0.0147,0.0147,0.0147,0,0,0,0,0,0,-0.0395,-0.0341,-0.0323,-0.0316,-0.027,-0.0203,-0.0194,-0.0162,-0.0112,-0.011,-0.0049,-0.0034,0.0014,0.0051,0.0032,0.0116,0.012,0.0125,0.0089,0.0089,0.0089,0.0071,0.0055,0,0,0,0,0,-0.0409,-0.04,-0.034,-0.0335,-0.0316,-0.0257,-0.0234,-0.0202,-0.0148,-0.0126,-0.0075,-0.0018,0.0034,0.0068,0.0112,0.0163,0.02,0.018,0.0181,0.018,0.0176,0.0245,0.025,0.0191,0.0191,0.0191,0,0,-0.0431,-0.04,-0.0396,-0.0346,-0.031,-0.0284,-0.0243,-0.0212,-0.0185,-0.0122,-0.0074,-0.0024,0.0045,0.01,0.0126,0.0134,0.0219,0.0183,0.0182,0.0178,0.0247,0.0253,0.0258,0.0193,0.0192,0.0192,0,0,-0.0469,-0.0442,-0.0446,-0.0408,-0.0356,-0.0312,-0.0307,-0.0239,-0.0204,-0.015,-0.0097,-0.0033,0.004,0.0105,0.0143,0.0174,0.0208,0.0181,0.018,0.0246,0.0251,0.0256,0.0314,0.0325,0.0193,0.0193,0.0193,0,-0.0502,-0.0492,-0.044,-0.0426,-0.04,-0.033,-0.0321,-0.0271,-0.0191,-0.0155,-0.0144,-0.0009,0.0046,0.0133,0.0146,0.0174,0.0209,0.017,0.0245,0.0251,0.0256,0.0315,0.0326,0.0192,0.0192,0.0192,0.0192,0,-0.0534,-0.0523,-0.0521,-0.048,-0.0442,-0.0424,-0.0346,-0.0305,-0.0257,-0.0197,-0.0113,-0.0025,0.0059,0.0089,0.0128,0.0202,0.0212,0.0225,0.0238,0.026,0.032,0.0333,0.019,0.019,0.019,0.0191,0,0,-0.0617,-0.0559,-0.056,-0.0547,-0.0469,-0.0444,-0.039,-0.0316,-0.0275,-0.0193,-0.013,-0.0025,0.0028,0.0076,0.0142,0.0209,0.0284,0.0229,0.0233,0.0274,0.0424,0.0489,0.051,0.0304,0.0306,0.0307,0.0451,0,-0.0662,-0.0667,-0.0608,-0.0596,-0.0591,-0.0496,-0.045,-0.0369,-0.0288,-0.0207,-0.0097,-0.0022,0.0024,0.0066,0.0142,0.0249,0.0316,0.0244,0.0407,0.0412,0.0458,0.0526,0.039,0.0511,0.0463,0.0466,0.0467,0,-0.0716,-0.0709,-0.0718,-0.0655,-0.0641,-0.0612,-0.0519,-0.0465,-0.0326,-0.0262,-0.0155,-0.0066,0.0063,0.0082,0.0278,0.0226,0.0315,0.0394,0.0401,0.0482,0.0502,0.0483,0.0537,0.0489,0.0487,0.0486,0.0484,0,-0.0818,-0.0782,-0.0796,-0.0776,-0.0693,-0.0667,-0.0616,-0.0491,-0.0434,-0.0296,-0.0238,-0.0078,0.0013,0.0142,0.0322,0.0297,0.0528,0.0518,0.0661,0.0666,0.0594,0.0591,0.064,0.064,0.064,0.0639,0.0639,0,-0.0894,-0.09,-0.0847,-0.0853,-0.0852,-0.0757,-0.0718,-0.0638,-0.0509,-0.0429,-0.0282,-0.0175,0.0029,0.0197,0.0327,0.0555,0.0541,0.0679,0.0719,0.0581,0.0575,0.0584,0.0575,0.0645,0.0644,0.0642,0.0642,0,-0.1,-0.0969,-0.098,-0.0921,-0.0904,-0.0906,-0.0805,-0.0764,-0.0635,-0.0523,-0.0481,-0.0234,0.0006,0.0214,0.0464,0.058,0.0771,0.0844,0.0673,0.0692,0.0855,0.0843,0.1019,0.1023,0.1026,0.1029,0.1031,0,-0.1053,-0.1074,-0.1054,-0.1069,-0.1044,-0.1021,-0.0995,-0.0859,-0.079,-0.0543,-0.0489,-0.0221,0.0007,0.0407,0.0614,0.0869,0.0885,0.0916,0.0857,0.0879,0.09,0.0883,0.0867,0.0739,0.0739,0.0739,0.0739,0,-0.1144,-0.1139,-0.1151,-0.1192,-0.1188,-0.1164,-0.1102,-0.1055,-0.0861,-0.0722,-0.0457,-0.0248,0.0137,0.0412,0.0736,0.0854,0.0866,0.0924,0.1001,0.0678,0.0631,0.0646,0.0637,0.0736,0.0736,0.0737,0.0737,0.0737,-0.1206,-0.1251,-0.1271,-0.1304,-0.1307,-0.1275,-0.1222,-0.1121,-0.0979,-0.0729,-0.0509,-0.0213,0.0093,0.0514,0.074,0.0904,0.093,0.0946,0.0939,0.0935,0.089,0.0853,0.0991,0.0992,0.0994,0.0995,0.0996,0,-0.1278,-0.1319,-0.1369,-0.1395,-0.1409,-0.1369,-0.1261,-0.1178,-0.0998,-0.0788,-0.0528,-0.0228,0.0101,0.0408,0.065,0.087,0.0789,0.0905,0.074,0.0741,0.0742,0.0681,0.0731,0.0731,0.0731,0.0732,0,0,-0.1316,-0.1391,-0.1418,-0.1468,-0.147,-0.1423,-0.1338,-0.1194,-0.1029,-0.0801,-0.0605,-0.033,0.0073,0.0208,0.0461,0.0596,0.0606,0.059,0.0769,0.054,0.0539,0.0725,0.063,0,0,0,0,0]}],[{"header":{"parameterUnit":"m.s-1","parameterCategory":2,"la1":30.2991,"la2":30.254,"lo1":-89.0895,"lo2":-89.0444,"dy":0.0017,"dx":0.0017,"nx":28,"ny":28,"refTime":"2024-04-27T21:00:00:Z","depth":"4","parameterNumber":2,"parameterNumberName":"U-component_of_CURRENTS"},"data":[0,0,0,0,0,0,0,0,0,0,0,0,0,0,0,0,0,0,0,0,0,0,0,0,0,0,0,0,0,0,0,0,0,0,0,0,0,0,0,0,0,0,0,0,0,0,0,0,0,0,0,0,0,0,0,0,0,0,-0.1633,-0.1634,0,-0.1699,-0.17,-0.17,-0.1719,-0.1719,-0.1719,-0.1718,-0.172,-0.1721,-0.1721,0,0,0,0,0,0,0,0,0,0,0,0,0,-0.151,-0.1512,-0.1632,-0.1634,-0.1635,-0.1699,-0.17,-0.17,-0.1719,-0.1719,-0.1719,-0.1718,-0.172,-0.1721,-0.1721,0,0,0,0,0,0,0,0,0,0,0,0,0,-0.1565,-0.1513,-0.1632,-0.1654,-0.1657,-0.1699,-0.17,-0.1701,-0.1719,-0.1719,-0.1718,-0.1718,-0.172,-0.1721,-0.1721,-0.1724,0,0,-0.1721,-0.1721,0,0,0,0,0,0,0,0,-0.1562,-0.1569,-0.165,-0.1653,-0.1656,-0.1704,-0.1658,-0.1706,-0.1719,-0.1692,-0.1718,-0.1718,-0.1711,-0.1712,-0.1721,-0.1724,-0.1724,-0.1721,-0.1721,-0.1721,-0.1722,0,0,0,0,0,0,0,-0.1558,-0.1567,-0.1655,-0.1651,-0.1655,-0.1657,-0.1665,-0.1667,-0.1697,-0.1694,-0.1696,-0.1709,-0.1712,-0.1721,-0.1721,-0.1724,-0.1721,-0.1721,-0.1722,-0.1722,-0.1788,-0.179,0,0,0,0,0,0,-0.1558,-0.1563,-0.1653,-0.1658,-0.1612,-0.166,-0.1668,-0.1686,-0.1699,-0.1702,-0.1709,-0.171,-0.172,-0.1721,-0.1721,-0.1791,-0.1721,-0.1722,-0.1722,-0.1786,-0.1788,-0.179,0,0,0,0,0,0,-0.1555,-0.1566,-0.1651,-0.1614,-0.1626,-0.1663,-0.1682,-0.1687,-0.1724,-0.1712,-0.1713,-0.1745,-0.172,-0.1721,-0.1753,-0.1789,-0.1722,-0.1722,-0.1784,-0.1787,-0.1789,-0.1889,0,0,0,0,0,0,-0.1551,-0.1564,-0.1589,-0.1615,-0.1628,-0.1691,-0.1683,-0.1689,-0.1732,-0.1734,-0.1742,-0.1741,-0.172,-0.1753,-0.1753,-0.1788,-0.1722,-0.1782,-0.1786,-0.1789,-0.1883,-0.1894,-0.1904,0,0,0,0,0,-0.1547,-0.1573,-0.159,-0.1602,-0.1657,-0.1693,-0.17,-0.1723,-0.1735,-0.1755,-0.1768,-0.1742,-0.1772,-0.1755,-0.1755,-0.179,-0.1781,-0.1785,-0.1788,-0.1879,-0.1892,-0.1903,0,0,0,0,0,0,-0.1528,-0.1579,-0.1597,-0.1637,-0.1673,-0.1698,-0.1726,-0.1744,-0.1773,-0.1783,-0.1767,-0.1767,-0.1805,-0.1787,-0.1768,-0.1817,-0.1771,-0.1775,-0.184,-0.1852,-0.1862,-0.1843,-0.1722,0,0,0,0,0,-0.1539,-0.1576,-0.1617,-0.1652,-0.1675,-0.1709,-0.1734,-0.1753,-0.1777,-0.1792,-0.1801,-0.1809,-0.1817,-0.1827,-0.1827,-0.1861,-0.1823,-0.1881,-0.1891,-0.19,-0.1885,-0.187,-0.1877,-0.1802,-0.1802,-0.1802,0,0,-0.1541,-0.1576,-0.1596,-0.1652,-0.1684,-0.1725,-0.1724,-0.1772,-0.1809,-0.1786,-0.1844,-0.1846,-0.1833,-0.1868,-0.1883,-0.1861,-0.1906,-0.1905,-0.1913,-0.1892,-0.1874,-0.1881,-0.1888,-0.1805,-0.1805,-0.1804,0,0,-0.1555,-0.1598,-0.1633,-0.1672,-0.1733,-0.1755,-0.1778,-0.1827,-0.1853,-0.191,-0.1898,-0.1923,-0.1951,-0.1941,-0.194,-0.2006,-0.1958,-0.2016,-0.2057,-0.2044,-0.205,-0.2054,-0.2031,-0.2032,-0.2024,-0.2024,-0.2025,0,-0.1556,-0.161,-0.1648,-0.1694,-0.1734,-0.1774,-0.1821,-0.1854,-0.1908,-0.193,-0.1941,-0.1982,-0.1979,-0.1999,-0.2026,-0.2027,-0.2009,-0.2015,-0.2057,-0.206,-0.2062,-0.2037,-0.2037,-0.203,-0.2029,-0.2029,-0.2028,0,-0.1589,-0.1649,-0.1675,-0.1749,-0.1793,-0.1843,-0.1895,-0.1942,-0.1988,-0.2014,-0.2064,-0.2067,-0.2083,-0.2098,-0.2086,-0.2109,-0.2087,-0.207,-0.2024,-0.2076,-0.2046,-0.2045,-0.2037,-0.2035,-0.2034,-0.2032,0,0,-0.154,-0.1673,-0.1685,-0.1739,-0.1832,-0.1867,-0.1938,-0.2,-0.2042,-0.2097,-0.2137,-0.2168,-0.2171,-0.2167,-0.2159,-0.2153,-0.2171,-0.213,-0.2127,-0.2103,-0.214,-0.2024,-0.201,-0.2169,-0.2169,-0.2169,-0.2118,0,-0.1556,-0.1656,-0.1718,-0.1813,-0.1868,-0.1937,-0.1995,-0.2057,-0.2109,-0.2155,-0.2168,-0.2204,-0.2198,-0.2216,-0.2212,-0.2177,-0.2169,-0.2186,-0.2095,-0.2091,-0.1978,-0.2005,-0.2169,-0.2116,-0.2115,-0.2115,-0.2115,0,-0.1554,-0.1631,-0.1732,-0.1858,-0.1888,-0.195,-0.2048,-0.2106,-0.2171,-0.2209,-0.2244,-0.2254,-0.2265,-0.225,-0.2214,-0.223,-0.2192,-0.216,-0.2157,-0.2003,-0.197,-0.2048,-0.2111,-0.2111,-0.2111,-0.2112,-0.2112,0,-0.1491,-0.1632,-0.1719,-0.1764,-0.1908,-0.1966,-0.2038,-0.2123,-0.2167,-0.224,-0.227,-0.2288,-0.2296,-0.2262,-0.2216,-0.2223,-0.2154,-0.2152,-0.2005,-0.1997,-0.2073,-0.2069,-0.2111,-0.2111,-0.2112,-0.2112,-0.2112,0,-0.1467,-0.1535,-0.1706,-0.1753,-0.1841,-0.1954,-0.2036,-0.2104,-0.219,-0.2221,-0.2291,-0.2291,-0.2301,-0.227,-0.2221,-0.2099,-0.216,-0.1998,-0.197,-0.2119,-0.2121,-0.2072,-0.2068,-0.211,-0.211,-0.2111,-0.2111,0,-0.1375,-0.1495,-0.1593,-0.1763,-0.1817,-0.1876,-0.2026,-0.207,-0.2176,-0.2214,-0.2239,-0.2294,-0.2249,-0.2231,-0.2163,-0.2088,-0.1996,-0.1937,-0.2093,-0.2078,-0.1847,-0.185,-0.1765,-0.176,-0.1756,-0.1753,-0.175,0,-0.1335,-0.1384,-0.1568,-0.1622,-0.1705,-0.1819,-0.1884,-0.2031,-0.2072,-0.2183,-0.2174,-0.2192,-0.2198,-0.2003,-0.201,-0.1904,-0.1877,-0.1835,-0.1841,-0.1827,-0.181,-0.1819,-0.1826,-0.1744,-0.1743,-0.1742,-0.1741,0,-0.1239,-0.1318,-0.1396,-0.1514,-0.1606,-0.169,-0.1801,-0.1818,-0.1964,-0.2079,-0.2046,-0.2016,-0.1957,-0.1897,-0.1831,-0.1758,-0.1869,-0.1793,-0.1801,-0.1806,-0.1801,-0.179,-0.1802,-0.1727,-0.1729,-0.1731,-0.1731,0,-0.1145,-0.1172,-0.1288,-0.137,-0.1477,-0.1524,-0.1611,-0.1669,-0.1731,-0.1876,-0.185,-0.1869,-0.1929,-0.1817,-0.1752,-0.1679,-0.165,-0.1602,-0.162,-0.1635,-0.1615,-0.1591,-0.1415,0,0,0,0,0,-0.1041,-0.1062,-0.1135,-0.1221,-0.1322,-0.1378,-0.1532,-0.1623,-0.1769,-0.1697,-0.1776,-0.1717,-0.1642,-0.1654,-0.1541,-0.1674,-0.1646,-0.1539,-0.16,-0.1651,-0.1667,-0.1655,0,0,0,0,0,0,-0.0969,-0.1029,-0.1077,-0.1076,-0.1094,-0.1186,-0.1269,-0.1382,-0.1367,-0.1516,-0.1474,-0.1595,-0.153,-0.1641,-0.1485,-0.149,-0.1495,-0.1569,-0.1565,-0.1642,-0.1657,-0.1669,-0.1663,0,0,0,0,0]},{"header":{"parameterUnit":"m.s-1","parameterCategory":2,"la1":30.2991,"la2":30.254,"lo1":-89.0895,"lo2":-89.0444,"dy":0.0017,"dx":0.0017,"nx":28,"ny":28,"refTime":"2024-04-27T21:00:00:Z","depth":"4","parameterNumber":3,"parameterNumberName":"V-component_of_CURRENTS"},"data":[0,0,0,0,0,0,0,0,0,0,0,0,0,0,0,0,0,0,0,0,0,0,0,0,0,0,0,0,0,0,0,0,0,0,0,0,0,0,0,0,0,0,0,0,0,0,0,0,0,0,0,0,0,0,0,0,0,0,-0.0357,-0.0356,0,-0.0295,-0.0294,-0.0294,-0.0256,-0.0256,-0.0256,-0.0255,-0.0182,-0.018,-0.0178,0,0,0,0,0,0,0,0,0,0,0,0,0,-0.0384,-0.0384,-0.0357,-0.0356,-0.0355,-0.0295,-0.0294,-0.0293,-0.0256,-0.0256,-0.0255,-0.0255,-0.0182,-0.018,-0.0178,0,0,0,0,0,0,0,0,0,0,0,0,0,-0.0352,-0.0384,-0.0357,-0.033,-0.0327,-0.0295,-0.0294,-0.0293,-0.0256,-0.0256,-0.0255,-0.0255,-0.0183,-0.018,-0.0177,-0.0165,0,0,-0.0169,-0.0168,0,0,0,0,0,0,0,0,-0.0354,-0.0351,-0.0334,-0.0331,-0.0328,-0.0283,-0.0277,-0.025,-0.0256,-0.0282,-0.0255,-0.0255,-0.0215,-0.021,-0.0198,-0.0161,-0.0158,-0.0169,-0.0167,-0.0166,-0.0165,0,0,0,0,0,0,0,-0.0356,-0.0353,-0.0332,-0.0334,-0.033,-0.0301,-0.0297,-0.0271,-0.025,-0.028,-0.0277,-0.0271,-0.0213,-0.0201,-0.0196,-0.0157,-0.0169,-0.0166,-0.0165,-0.0164,-0.0071,-0.007,0,0,0,0,0,0,-0.0368,-0.0355,-0.0334,-0.033,-0.0341,-0.0301,-0.0296,-0.0297,-0.025,-0.0243,-0.0271,-0.027,-0.0205,-0.0199,-0.0193,-0.0157,-0.0166,-0.0163,-0.0162,-0.0072,-0.0071,-0.007,0,0,0,0,0,0,-0.0369,-0.0367,-0.0336,-0.0341,-0.0335,-0.0301,-0.0303,-0.0296,-0.0286,-0.0244,-0.0237,-0.0268,-0.0205,-0.0197,-0.016,-0.0155,-0.0162,-0.016,-0.0073,-0.0071,-0.007,-0.0097,0,0,0,0,0,0,-0.037,-0.0368,-0.0378,-0.0342,-0.0335,-0.0324,-0.0303,-0.0295,-0.0283,-0.028,-0.0239,-0.0232,-0.0204,-0.0164,-0.0157,-0.0151,-0.0158,-0.0074,-0.0072,-0.0071,-0.0097,-0.0096,-0.0096,0,0,0,0,0,-0.0372,-0.0387,-0.0379,-0.0376,-0.0349,-0.0324,-0.0318,-0.0292,-0.0283,-0.0281,-0.0242,-0.0233,-0.0149,-0.0161,-0.0153,-0.0146,-0.0074,-0.0073,-0.0071,-0.0097,-0.0096,-0.0096,0,0,0,0,0,0,-0.0409,-0.0384,-0.0374,-0.0383,-0.0358,-0.0318,-0.0318,-0.0297,-0.0266,-0.0264,-0.0223,-0.0212,-0.0183,-0.0156,-0.017,-0.0113,-0.011,-0.0107,-0.0133,-0.0132,-0.0132,-0.0141,-0.0155,0,0,0,0,0,-0.0422,-0.0427,-0.0392,-0.0402,-0.0391,-0.0356,-0.0344,-0.0325,-0.0291,-0.0277,-0.0243,-0.0204,-0.0168,-0.0144,-0.0116,-0.0082,-0.0053,-0.0071,-0.0071,-0.0071,-0.0071,-0.0015,-0.001,-0.0064,-0.0064,-0.0064,0,0,-0.0442,-0.0428,-0.0432,-0.041,-0.039,-0.0377,-0.0349,-0.0336,-0.032,-0.0274,-0.0245,-0.021,-0.0161,-0.0124,-0.0107,-0.01,-0.0039,-0.0068,-0.0069,-0.0069,-0.0012,-0.0007,-0.0002,-0.0062,-0.0063,-0.0063,0,0,-0.0478,-0.0469,-0.0481,-0.0459,-0.0431,-0.0403,-0.0402,-0.036,-0.0338,-0.0304,-0.0265,-0.0217,-0.0171,-0.0121,-0.0093,-0.0071,-0.0049,-0.007,-0.0065,-0.0011,-0.0006,-0.0002,0.0039,0.0048,-0.0059,-0.0059,-0.0059,0,-0.0506,-0.051,-0.048,-0.0477,-0.0463,-0.0418,-0.0417,-0.0385,-0.0335,-0.0309,-0.0301,-0.0205,-0.0165,-0.0099,-0.0088,-0.0071,-0.0045,-0.0074,-0.0011,-0.0006,-0.0001,0.004,0.0049,-0.006,-0.006,-0.006,-0.006,0,-0.0538,-0.0541,-0.0545,-0.0524,-0.0503,-0.0497,-0.0446,-0.042,-0.0387,-0.0345,-0.0284,-0.0217,-0.0154,-0.0133,-0.0103,-0.0043,-0.0039,-0.0029,-0.0017,0.0002,0.0045,0.0055,-0.0061,-0.0061,-0.0061,-0.006,0,0,-0.0604,-0.0576,-0.0578,-0.0572,-0.0527,-0.0514,-0.0481,-0.0432,-0.0405,-0.0345,-0.0298,-0.0218,-0.0175,-0.0139,-0.0088,-0.0032,0.0029,-0.0018,-0.0015,0.0013,0.0138,0.011,0.0119,0.0045,0.0047,0.0048,0.0151,0,-0.064,-0.0654,-0.0619,-0.062,-0.0619,-0.0558,-0.053,-0.0476,-0.042,-0.0361,-0.0272,-0.0215,-0.0179,-0.0143,-0.0081,0.0001,0.0055,-0.0001,0.0123,0.0126,0.0092,0.013,0.0054,0.0159,0.0162,0.0163,0.0165,0,-0.0678,-0.0681,-0.0698,-0.0663,-0.0655,-0.0645,-0.0584,-0.055,-0.0451,-0.0405,-0.032,-0.0248,-0.0141,-0.0124,0.003,-0.0011,0.0057,0.0118,0.0124,0.0113,0.0118,0.0139,0.0184,0.0182,0.0181,0.018,0.0178,0,-0.0738,-0.0729,-0.0747,-0.0737,-0.0694,-0.0684,-0.0655,-0.0571,-0.0534,-0.0428,-0.0385,-0.0255,-0.0182,-0.0076,0.006,0.0045,0.0218,0.0217,0.0258,0.0256,0.026,0.0254,0.0316,0.0316,0.0316,0.0315,0.0315,0,-0.0779,-0.0792,-0.0782,-0.0791,-0.0803,-0.0745,-0.073,-0.0677,-0.059,-0.0539,-0.0416,-0.0339,-0.0168,-0.0041,0.0061,0.0195,0.0225,0.0265,0.0286,0.0246,0.0238,0.0267,0.026,0.0319,0.0318,0.0318,0.0317,0,-0.0828,-0.0826,-0.0848,-0.0833,-0.0834,-0.0842,-0.0797,-0.0772,-0.0686,-0.0613,-0.0578,-0.039,-0.0223,-0.0058,0.0134,0.0197,0.0327,0.0363,0.0309,0.0325,0.0325,0.0315,0.0415,0.0415,0.0415,0.0415,0.0415,0,-0.0847,-0.0869,-0.0897,-0.0924,-0.0922,-0.0925,-0.0921,-0.084,-0.0798,-0.0639,-0.06,-0.0414,-0.0284,-0.0023,0.0137,0.0334,0.0351,0.0406,0.0364,0.0327,0.0338,0.0328,0.0319,0.0415,0.0415,0.0415,0.0415,0,-0.088,-0.0902,-0.0923,-0.0988,-0.1011,-0.1017,-0.0996,-0.0967,-0.0851,-0.0783,-0.06,-0.043,-0.0238,-0.0026,0.0133,0.027,0.0365,0.0406,0.0407,0.0368,0.0328,0.0337,0.0328,0.0415,0.0415,0.0415,0.0415,0,-0.0904,-0.0938,-0.0982,-0.1027,-0.1076,-0.108,-0.1061,-0.0978,-0.0915,-0.0729,-0.0671,-0.0436,-0.0284,-0.0058,0.009,0.0223,0.0241,0.0257,0.0265,0.0267,0.0186,0.0111,0.0159,0,0,0,0,0,-0.0912,-0.0951,-0.1009,-0.1057,-0.1111,-0.1123,-0.1092,-0.1049,-0.0943,-0.0829,-0.074,-0.0554,-0.0282,-0.014,-0.0014,0.0057,0.0238,0.0203,0.0252,0.0415,0.0415,0.0342,0,0,0,0,0,0,-0.092,-0.098,-0.1008,-0.1072,-0.1109,-0.1142,-0.1121,-0.1049,-0.0958,-0.0837,-0.0682,-0.0564,-0.0296,-0.0365,-0.0026,0.0022,0.006,0.0347,0.0349,0.0415,0.0415,0.0415,0.034,0,0,0,0,0]}]]